[[{"header":{"parameterUnit":"m.s-1","parameterCategory":1,"la1":30.2991,"la2":30.254,"lo1":-89.0895,"lo2":-89.0444,"dy":0.0017,"dx":0.0017,"nx":28,"ny":28,"refTime":"2024-08-18T09:00:00:Z","depth":0,"parameterNumber":2,"parameterNumberName":"U-component_of_WINDS"},"data":[0,0,0,0,0,0,0,0,0,0,0,0,0,0,0,0,0,0,0,0,0,0,0,0,0,0,0,0,0,0,0,0,0,0,0,0,0,0,0,0,0,0,0,0,0,0,0,0,0,0,0,0,0,0,0,0,0,0,2.3256,2.3258,0,2.3414,2.3416,2.3418,2.3443,2.3442,2.344,2.3439,2.3604,2.361,2.3615,0,0,0,0,0,0,0,0,0,0,0,0,0,2.298,2.2985,2.3256,2.3258,2.326,2.3414,2.3416,2.3418,2.3443,2.3442,2.344,2.3438,2.3602,2.3609,2.3616,0,0,0,0,0,0,0,0,0,0,0,0,0,2.3116,2.2987,2.3256,2.3291,2.3296,2.3414,2.3416,2.3419,2.3444,2.3442,2.3439,2.3437,2.36,2.3608,2.3617,2.3712,0,0,2.3643,2.3647,0,0,0,0,0,0,0,0,2.3108,2.3126,2.3284,2.3289,2.3294,2.3407,2.338,2.3517,2.3444,2.3388,2.3439,2.3436,2.354,2.3554,2.3588,2.3719,2.3726,2.3644,2.3649,2.3653,2.3655,0,0,0,0,0,0,0,2.3098,2.3119,2.3319,2.3286,2.3293,2.33,2.3317,2.3406,2.3474,2.3392,2.3395,2.3413,2.3543,2.358,2.3592,2.3729,2.3643,2.3651,2.3656,2.366,2.3948,2.3951,0,0,0,0,0,0,2.3082,2.3111,2.3314,2.3324,2.3194,2.3307,2.3326,2.3373,2.3473,2.3486,2.3414,2.3413,2.3566,2.3582,2.3598,2.3717,2.3652,2.366,2.3665,2.3946,2.3949,2.3952,0,0,0,0,0,0,2.3076,2.31,2.3307,2.3218,2.3245,2.3314,2.3367,2.3377,2.3414,2.349,2.3502,2.3439,2.3565,2.3586,2.3683,2.3723,2.3664,2.3672,2.3943,2.3947,2.395,2.3954,0,0,0,0,0,0,2.3068,2.3098,2.3133,2.3219,2.325,2.3389,2.3369,2.3382,2.3428,2.3428,2.3516,2.3529,2.3565,2.3671,2.3692,2.3734,2.3679,2.394,2.3944,2.3949,2.3951,2.3958,2.3963,0,0,0,0,0,2.3058,2.3128,2.3135,2.3159,2.3295,2.3391,2.3409,2.3448,2.3431,2.3468,2.3517,2.3526,2.3715,2.368,2.3705,2.3749,2.3937,2.3943,2.3949,2.3948,2.3956,2.3963,0,0,0,0,0,0,2.3046,2.314,2.3148,2.3248,2.3311,2.3395,2.3443,2.3455,2.3526,2.3523,2.357,2.359,2.3685,2.3727,2.3687,2.3848,2.3825,2.3836,2.3816,2.3825,2.3831,2.3819,2.3686,0,0,0,0,0,2.3055,2.3124,2.3203,2.3283,2.3314,2.3373,2.3416,2.3441,2.3509,2.3536,2.3592,2.3659,2.3733,2.3781,2.3854,2.3957,2.3978,2.4,2.4007,2.4011,2.402,2.408,2.4091,2.397,2.397,2.397,0,0,2.3075,2.3134,2.3175,2.3282,2.3334,2.3406,2.3395,2.3471,2.3525,2.3548,2.3643,2.3687,2.3765,2.3866,2.3913,2.3904,2.4058,2.4019,2.4022,2.4028,2.4087,2.4098,2.4108,2.3974,2.3973,2.3973,0,0,2.3146,2.3198,2.3271,2.3323,2.3402,2.3441,2.3458,2.3541,2.3571,2.3667,2.3686,2.3752,2.3879,2.3934,2.3978,2.4073,2.4084,2.4095,2.4128,2.4186,2.4195,2.4204,2.4238,2.425,2.4104,2.4104,2.4104,0,2.316,2.3267,2.3307,2.3382,2.343,2.3453,2.3529,2.3578,2.3677,2.371,2.3698,2.3859,2.3913,2.4028,2.4051,2.4086,2.4109,2.4085,2.419,2.4199,2.4208,2.4242,2.4255,2.4105,2.4105,2.4105,2.4105,0,2.3282,2.3356,2.3406,2.35,2.3553,2.3628,2.3681,2.373,2.3751,2.3792,2.3891,2.3956,2.4043,2.4073,2.4094,2.4192,2.4184,2.418,2.4159,2.422,2.4252,2.4265,2.4106,2.4106,2.4106,2.4105,0,0,2.3349,2.3465,2.3483,2.3526,2.3615,2.3674,2.3752,2.3836,2.3878,2.3946,2.4013,2.4121,2.4119,2.417,2.4198,2.4248,2.432,2.4239,2.4242,2.4252,2.4433,2.4435,2.4449,2.4328,2.4331,2.4333,2.4427,0,2.3431,2.3568,2.3607,2.3722,2.3792,2.3817,2.3884,2.3948,2.3988,2.4055,2.4101,2.4176,2.4168,2.4199,2.425,2.43,2.4357,2.4294,2.4392,2.4395,2.4372,2.4466,2.4468,2.4553,2.444,2.4442,2.4444,0,2.3545,2.3614,2.3737,2.3819,2.385,2.3909,2.3991,2.4053,2.4127,2.4153,2.421,2.4234,2.4318,2.4292,2.4408,2.4364,2.4407,2.4439,2.4443,2.4453,2.4423,2.4479,2.4581,2.4594,2.4464,2.4462,2.4461,0,2.3583,2.3707,2.3797,2.3833,2.3931,2.3972,2.4015,2.4086,2.4135,2.4207,2.4239,2.432,2.4365,2.4428,2.4474,2.445,2.4587,2.4564,2.4612,2.4611,2.4639,2.4637,2.4749,2.4667,2.4667,2.4666,2.4666,0,2.367,2.3744,2.3815,2.387,2.3955,2.4,2.4083,2.4127,2.419,2.4256,2.4283,2.4344,2.4401,2.447,2.4507,2.4599,2.4619,2.4644,2.4653,2.4641,2.4638,2.467,2.4665,2.467,2.4669,2.4668,2.4668,0,2.3726,2.3776,2.3876,2.396,2.3983,2.4042,2.4115,2.417,2.4212,2.4295,2.4317,2.4384,2.4468,2.452,2.4626,2.4651,2.4752,2.4759,2.4727,2.4731,2.4776,2.4771,2.4913,2.4934,2.4837,2.4838,2.4838,0,2.3779,2.3836,2.3927,2.3972,2.4015,2.4088,2.4138,2.4185,2.4237,2.4325,2.4371,2.4456,2.4526,2.4659,2.4718,2.48,2.4809,2.4853,2.4821,2.4809,2.4811,2.4806,2.4813,2.4858,2.4859,2.486,2.486,0,2.3867,2.3889,2.3959,2.4039,2.4098,2.4163,2.4228,2.4264,2.4323,2.438,2.4465,2.452,2.4629,2.4713,2.4801,2.4847,2.4864,2.487,2.4885,2.4874,2.4854,2.4866,2.4741,2.4866,2.4866,2.4865,2.4865,2.4865,2.3924,2.3976,2.4048,2.4126,2.418,2.4241,2.4298,2.4347,2.4418,2.451,2.4534,2.4624,2.4698,2.4817,2.4865,2.4937,2.4931,2.4953,2.4959,2.4964,2.4965,2.4842,2.4953,2.4953,2.4953,2.4953,2.4953,0,2.4014,2.4061,2.4133,2.4223,2.4285,2.4295,2.4368,2.442,2.4497,2.4564,2.4633,2.4732,2.4815,2.4881,2.4967,2.5012,2.5022,2.5033,2.503,2.5041,2.4965,2.4943,2.5023,2.5023,2.5023,2.5023,2.5023,2.5023,2.4068,2.4158,2.4189,2.4307,2.4355,2.4442,2.4483,2.454,2.4594,2.4703,2.4771,2.4813,2.4881,2.4972,2.5049,2.5067,2.5097,2.5107,2.5126,2.5054,2.5046,2.5038,2.5018,2.5113,2.5113,2.5196,2.5196,2.5197]},{"header":{"parameterUnit":"m.s-1","parameterCategory":1,"la1":30.2991,"la2":30.254,"lo1":-89.0895,"lo2":-89.0444,"dy":0.0017,"dx":0.0017,"nx":28,"ny":28,"refTime":"2024-08-18T09:00:00:Z","depth":0,"parameterNumber":3,"parameterNumberName":"V-component_of_WINDS"},"data":[0,0,0,0,0,0,0,0,0,0,0,0,0,0,0,0,0,0,0,0,0,0,0,0,0,0,0,0,0,0,0,0,0,0,0,0,0,0,0,0,0,0,0,0,0,0,0,0,0,0,0,0,0,0,0,0,0,0,-4.1109,-4.111,0,-4.1271,-4.1273,-4.1275,-4.1289,-4.1287,-4.1286,-4.1284,-4.1444,-4.145,-4.1456,0,0,0,0,0,0,0,0,0,0,0,0,0,-4.0807,-4.0812,-4.1108,-4.111,-4.1112,-4.1271,-4.1273,-4.1275,-4.1289,-4.1287,-4.1285,-4.1283,-4.1443,-4.1449,-4.1457,0,0,0,0,0,0,0,0,0,0,0,0,0,-4.095,-4.0814,-4.1108,-4.1139,-4.1143,-4.127,-4.1273,-4.1276,-4.129,-4.1287,-4.1285,-4.1282,-4.144,-4.1449,-4.1457,-4.1563,0,0,-4.1484,-4.1488,0,0,0,0,0,0,0,0,-4.0942,-4.0961,-4.1132,-4.1137,-4.1142,-4.1257,-4.1225,-4.1372,-4.129,-4.1234,-4.1284,-4.1281,-4.1384,-4.1397,-4.1433,-4.1571,-4.1578,-4.1485,-4.149,-4.1494,-4.1497,0,0,0,0,0,0,0,-4.0932,-4.0954,-4.1172,-4.1135,-4.1141,-4.1143,-4.1161,-4.1253,-4.1321,-4.1239,-4.124,-4.1259,-4.1386,-4.1425,-4.1437,-4.158,-4.1485,-4.1493,-4.1498,-4.1502,-4.1813,-4.1816,0,0,0,0,0,0,-4.0917,-4.0946,-4.1167,-4.1177,-4.1034,-4.1151,-4.117,-4.1223,-4.132,-4.1333,-4.1261,-4.126,-4.1411,-4.1427,-4.1443,-4.1573,-4.1494,-4.1502,-4.1508,-4.181,-4.1814,-4.1817,0,0,0,0,0,0,-4.091,-4.0936,-4.1161,-4.1062,-4.1091,-4.1159,-4.1217,-4.1227,-4.1266,-4.1338,-4.1349,-4.1289,-4.1409,-4.143,-4.1534,-4.1579,-4.1506,-4.1514,-4.1807,-4.1812,-4.1816,-4.1835,0,0,0,0,0,0,-4.0902,-4.0934,-4.0976,-4.1063,-4.1096,-4.125,-4.122,-4.1232,-4.1282,-4.1281,-4.1366,-4.1378,-4.1409,-4.1521,-4.1543,-4.159,-4.1521,-4.1803,-4.1809,-4.1814,-4.1831,-4.184,-4.1847,0,0,0,0,0,-4.0891,-4.0973,-4.0978,-4.1004,-4.115,-4.1253,-4.1272,-4.1308,-4.1285,-4.1327,-4.1374,-4.1375,-4.1571,-4.1531,-4.1556,-4.1606,-4.18,-4.1807,-4.1814,-4.1827,-4.1838,-4.1847,0,0,0,0,0,0,-4.0886,-4.0985,-4.0991,-4.1104,-4.1171,-4.1255,-4.1309,-4.1318,-4.139,-4.1386,-4.1426,-4.1445,-4.1547,-4.1587,-4.1541,-4.1714,-4.1683,-4.1695,-4.1684,-4.1695,-4.1704,-4.1691,-4.1529,0,0,0,0,0,-4.0899,-4.0976,-4.1058,-4.115,-4.1183,-4.124,-4.1287,-4.1309,-4.1378,-4.1406,-4.1459,-4.1525,-4.1602,-4.1651,-4.1725,-4.1837,-4.1856,-4.1884,-4.1892,-4.1899,-4.1908,-4.1971,-4.1985,-4.184,-4.1839,-4.1839,0,0,-4.0925,-4.0989,-4.1034,-4.1151,-4.1204,-4.1282,-4.1264,-4.1346,-4.1404,-4.1417,-4.1519,-4.1561,-4.1637,-4.1746,-4.1796,-4.1782,-4.1953,-4.1908,-4.1912,-4.1918,-4.198,-4.1993,-4.2005,-4.1844,-4.1843,-4.1843,0,0,-4.1013,-4.1069,-4.1152,-4.1207,-4.129,-4.1328,-4.1348,-4.1433,-4.1462,-4.1565,-4.1577,-4.1646,-4.1777,-4.1831,-4.1875,-4.1986,-4.199,-4.2009,-4.2052,-4.2113,-4.2124,-4.2135,-4.2174,-4.2188,-4.2018,-4.2019,-4.2019,0,-4.1034,-4.1153,-4.1193,-4.1277,-4.1327,-4.1346,-4.143,-4.1481,-4.1583,-4.1617,-4.1601,-4.1767,-4.1819,-4.1941,-4.1968,-4.2004,-4.2027,-4.1999,-4.212,-4.213,-4.2141,-4.2179,-4.2193,-4.202,-4.202,-4.202,-4.202,0,-4.1175,-4.1258,-4.1315,-4.1416,-4.1473,-4.1557,-4.1608,-4.1661,-4.1679,-4.1719,-4.1824,-4.1888,-4.1976,-4.2007,-4.2024,-4.2132,-4.2121,-4.2112,-4.2081,-4.2156,-4.2192,-4.2207,-4.2023,-4.2022,-4.2022,-4.2021,0,0,-4.1262,-4.1386,-4.1407,-4.1453,-4.1547,-4.1611,-4.1695,-4.1784,-4.1829,-4.1899,-4.197,-4.2082,-4.2075,-4.2125,-4.2149,-4.2203,-4.2287,-4.2187,-4.219,-4.2203,-4.2409,-4.2415,-4.2431,-4.2291,-4.2294,-4.2296,-4.2403,0,-4.136,-4.1512,-4.1552,-4.1681,-4.1758,-4.1778,-4.1851,-4.1916,-4.1956,-4.2026,-4.2069,-4.2148,-4.2133,-4.2164,-4.2218,-4.2265,-4.2328,-4.2258,-4.2356,-4.2359,-4.2335,-4.245,-4.2456,-4.2553,-4.2417,-4.2419,-4.2421,0,-4.1493,-4.1569,-4.1707,-4.1793,-4.1826,-4.1892,-4.1977,-4.2044,-4.2118,-4.2144,-4.2202,-4.2221,-4.2309,-4.2275,-4.2396,-4.2347,-4.239,-4.2419,-4.2424,-4.2433,-4.2394,-4.2462,-4.2585,-4.2599,-4.2444,-4.2442,-4.2441,0,-4.1542,-4.1679,-4.1779,-4.1819,-4.1921,-4.1967,-4.2011,-4.2083,-4.2135,-4.2209,-4.2242,-4.2325,-4.237,-4.2433,-4.2473,-4.2445,-4.2591,-4.256,-4.2614,-4.2613,-4.2642,-4.264,-4.2773,-4.2671,-4.2671,-4.2671,-4.267,0,-4.1646,-4.173,-4.1803,-4.1864,-4.1958,-4.2003,-4.2094,-4.2139,-4.2204,-4.2273,-4.2296,-4.236,-4.2411,-4.2482,-4.2515,-4.261,-4.263,-4.2653,-4.266,-4.265,-4.2647,-4.2678,-4.2671,-4.2675,-4.2674,-4.2673,-4.2672,0,-4.1716,-4.1769,-4.188,-4.1969,-4.1993,-4.2059,-4.2134,-4.2194,-4.2236,-4.2324,-4.2347,-4.2412,-4.2498,-4.2546,-4.2652,-4.2674,-4.2781,-4.2785,-4.2756,-4.2759,-4.281,-4.2804,-4.2967,-4.299,-4.2873,-4.2874,-4.2875,0,-4.1779,-4.1844,-4.1941,-4.1991,-4.2037,-4.2116,-4.2169,-4.2216,-4.227,-4.2361,-4.241,-4.2498,-4.257,-4.2706,-4.2761,-4.2843,-4.2849,-4.2901,-4.2861,-4.285,-4.285,-4.2845,-4.2852,-4.2907,-4.2908,-4.2909,-4.291,0,-4.1884,-4.1907,-4.1984,-4.2072,-4.2135,-4.2205,-4.2275,-4.2313,-4.2372,-4.2432,-4.2521,-4.2577,-4.2688,-4.2774,-4.2862,-4.2906,-4.2917,-4.2922,-4.2939,-4.2929,-4.2909,-4.292,-4.2774,-4.2918,-4.2917,-4.2916,-4.2916,-4.2915,-4.1952,-4.2011,-4.2089,-4.2175,-4.2233,-4.2297,-4.2359,-4.241,-4.2485,-4.2581,-4.2604,-4.2697,-4.2771,-4.289,-4.2937,-4.301,-4.3,-4.3024,-4.303,-4.3035,-4.3037,-4.2899,-4.3026,-4.3026,-4.3026,-4.3026,-4.3026,0,-4.2057,-4.211,-4.2188,-4.2286,-4.2353,-4.2362,-4.2439,-4.2494,-4.2577,-4.2646,-4.2718,-4.2821,-4.2906,-4.2969,-4.3056,-4.3102,-4.311,-4.3123,-4.3119,-4.313,-4.3041,-4.3018,-4.3116,-4.3116,-4.3116,-4.3116,-4.3116,-4.3116,-4.212,-4.2221,-4.2254,-4.2384,-4.2436,-4.253,-4.2573,-4.2633,-4.2689,-4.2803,-4.2875,-4.2917,-4.2984,-4.3075,-4.3153,-4.317,-4.32,-4.3213,-4.323,-4.3145,-4.3136,-4.3126,-4.3105,-4.3219,-4.3219,-4.3312,-4.3313,-4.3313]}]]